User: anonymous   Login
Location: Unspecified
(0.0000°N, 0.0000°E)
Time: 20:39:39
(UTC+00:00)
Language:

ELFIN B - Orbit

View from above orbital plane
View from above orbital plane
View from above satellite
View from above satellite

Ground track
Ground track

The orbit data is extracted from the following two-line orbital elements,

1 43616U 18070D   21020.13374546  .00004162  00000-0  95694-4 0  9994
2 43616  93.0209 244.4150 0013090 210.0253 150.0254 15.42619927131896
Epoch (UTC): 20 January 2021 03:12:35
Eccentricity: 0.0013090
inclination: 93.0209°
perigee height: 429 km
apogee height: 447 km
right ascension of ascending node: 244.4150°
argument of perigee: 210.0253°
revolutions per day: 15.42619927
mean anomaly at epoch: 150.0254°
orbit number at epoch: 13189

The dashed part of the orbit path shows where the satellite is in the earth's shadow,  

DLR